GW5874 Weather Reports


time (UTC)temp
F
wind
direction
speed
knots
gust
knots
rain 1hr
in
rain 24hr
in
rain mn
in
humidity
%
barometer
mb
20260506130851 48 280 1.7 2.6 0.00 0.00 0.00 84 1017.2
20260506130347 48 296 1.7 2.6 0.00 0.00 0.00 86 1017.2
20260506125845 47 349 0.0 0.9 0.00 0.00 0.00 86 1017.0
20260506125343 47 328 2.6 3.5 0.00 0.00 0.00 87 1016.9
20260506124841 47 21 1.7 2.6 0.00 0.00 0.00 86 1016.6
20260506124337 47 61 4.3 6.1 0.00 0.00 0.00 86 1016.7
20260506123835 47 286 1.7 2.6 0.00 0.00 0.00 86 1016.6
20260506123334 47 117 2.6 4.3 0.00 0.00 0.00 86 1017.0
20260506122830 47 352 1.7 2.6 0.00 0.00 0.00 87 1016.7
20260506122327 47 205 1.7 2.6 0.00 0.00 0.00 87 1016.7
20260506121826 46 274 0.9 2.6 0.00 0.00 0.00 88 1016.6
20260506121322 46 280 2.6 3.5 0.00 0.00 0.00 89 1016.9
20260506120819 46 308 0.0 0.9 0.00 0.00 0.00 89 1017.0
20260506120317 46 201 0.0 0.9 0.00 0.00 0.00 89 1017.1
20260506115814 46 358 0.9 0.9 0.00 0.00 0.00 89 1017.2
20260506115313 46 3 3.5 4.3 0.00 0.00 0.00 89 1016.9
20260506114810 46 123 2.6 3.5 0.00 0.00 0.00 89 1016.7
20260506114308 46 57 2.6 3.5 0.00 0.00 0.00 89 1016.6
20260506113806 46 106 3.5 7.0 0.00 0.00 0.00 89 1016.6
20260506113303 46 216 0.9 0.9 0.00 0.00 0.00 90 1016.6
20260506112800 46 20 0.9 2.6 0.00 0.00 0.00 89 1016.5
20260506112257 46 213 0.9 0.9 0.00 0.00 0.00 90 1016.6
20260506111754 46 275 0.0 0.0 0.00 0.00 0.00 90 1016.5
20260506111252 46 189 0.9 2.6 0.00 0.00 0.00 90 1016.2
20260506110749 46 262 1.7 3.5 0.00 0.00 0.00 89 1016.3
20260506110247 46 301 3.5 3.5 0.00 0.00 0.00 89 1016.1
20260506105743 46 202 0.0 0.9 0.00 0.00 0.00 89 1015.8
20260506105240 46 235 0.9 0.9 0.00 0.00 0.00 89 1015.9
20260506104738 46 214 0.9 0.9 0.00 0.00 0.00 89 1015.7
20260506104235 46 305 0.9 0.9 0.00 0.00 0.00 89 1015.5
20260506103732 46 268 0.0 0.0 0.00 0.00 0.00 89 1015.6
20260506103230 46 301 0.9 0.9 0.00 0.00 0.00 89 1015.6
20260506102727 46 241 0.9 0.9 0.00 0.00 0.00 89 1015.5
20260506102225 46 337 1.7 2.6 0.00 0.00 0.00 88 1015.4
20260506101721 46 308 2.6 3.5 0.00 0.00 0.00 88 1014.9
20260506101218 46 273 0.0 0.0 0.00 0.00 0.00 88 1014.7
20260506100716 46 230 0.9 0.9 0.00 0.00 0.00 88 1014.5
20260506100214 46 254 1.7 2.6 0.00 0.00 0.00 88 1014.5
20260506095712 46 309 1.7 2.6 0.00 0.00 0.00 88 1014.1
20260506095209 46 354 0.9 0.9 0.00 0.00 0.00 88 1014.2
20260506094706 46 233 0.9 0.9 0.00 0.00 0.00 87 1014.2
20260506094204 46 276 2.6 3.5 0.00 0.00 0.00 87 1014.3
20260506093703 46 121 0.9 2.6 0.00 0.00 0.00 88 1014.4
20260506093159 46 208 0.9 0.9 0.00 0.00 0.00 88 1014.2
20260506092657 46 277 0.0 0.0 0.00 0.00 0.00 88 1014.3
20260506092154 46 44 0.9 2.6 0.00 0.00 0.00 88 1014.4
20260506091652 46 286 0.0 0.9 0.00 0.00 0.00 87 1014.1
20260506091149 46 280 0.9 0.9 0.00 0.00 0.00 86 1013.9
20260506090647 46 10 1.7 2.6 0.00 0.00 0.00 86 1013.4
20260506090143 46 65 0.0 0.0 0.00 0.00 0.00 86 1013.4
20260506085640 46 355 2.6 3.5 0.00 0.00 0.00 85 1013.4
20260506085136 46 290 0.0 0.9 0.00 0.00 0.00 85 1013.5
20260506084633 46 197 0.9 0.9 0.00 0.00 0.00 86 1013.3
20260506084130 46 311 0.0 0.9 0.00 0.00 0.00 86 1013.4
20260506083627 47 205 0.9 0.9 0.00 0.00 0.00 87 1013.3
20260506083124 47 203 0.0 0.9 0.00 0.00 0.00 85 1013.5
20260506082621 46 222 0.9 0.9 0.00 0.00 0.00 85 1013.5
20260506082116 47 227 2.6 3.5 0.00 0.00 0.00 85 1013.2
20260506081615 47 226 0.0 0.9 0.00 0.00 0.00 85 1013.3
20260506081112 47 105 1.7 2.6 0.00 0.00 0.00 85 1013.5
20260506080610 47 98 1.7 2.6 0.00 0.00 0.00 85 1013.7
20260506080106 47 275 0.9 0.9 0.00 0.00 0.00 85 1013.2
20260506073049 47 351 2.6 2.6 0.00 0.00 0.00 86 1012.4
20260506072547 47 74 2.6 4.3 0.00 0.00 0.00 85 1012.8
20260506072044 47 58 1.7 2.6 0.00 0.00 0.00 86 1012.7
20260506071542 47 189 2.6 3.5 0.00 0.00 0.00 85 1012.6
20260506071040 47 152 0.9 0.9 0.00 0.00 0.00 86 1012.7
20260506070536 47 211 0.9 0.9 0.00 0.00 0.00 85 1013.0
20260506062514 47 277 2.6 4.3 0.00 0.00 0.00 88 1012.8
20260506062011 47 96 6.1 9.6 0.00 0.00 0.00 90 1012.7
20260506061506 47 322 1.7 4.3 0.00 0.00 0.00 92 1012.7
20260506061004 47 282 0.0 0.9 0.00 0.00 0.00 92 1013.2
20260506060503 46 335 0.9 0.9 0.00 0.00 0.00 93 1013.5
20260506050931 47 260 0.9 0.9 0.00 0.00 0.00 91 1013.7
20260506050429 47 255 0.0 0.0 0.00 0.00 0.00 91 1013.5
20260506044919 47 226 0.0 0.9 0.00 0.85 0.85 91 1013.4
20260506044418 47 271 0.9 0.9 0.00 0.85 0.85 91 1013.2
20260506043914 47 289 0.0 0.0 0.00 0.85 0.85 91 1013.1
20260506043412 47 354 4.3 4.3 0.00 0.85 0.85 91 1013.1
20260506042909 47 256 0.0 0.0 0.00 0.85 0.85 91 1013.2
20260506042409 47 118 4.3 8.7 0.00 0.85 0.85 91 1013.0
20260506041906 47 231 0.0 0.9 0.00 0.85 0.85 91 1013.0
20260506041403 47 181 0.0 0.9 0.00 0.85 0.85 91 1013.0
20260506040900 47 347 2.6 4.3 0.00 0.85 0.85 91 1012.4
20260506040358 47 213 1.7 2.6 0.00 0.85 0.85 91 1012.5
20260506035854 47 277 1.7 2.6 0.00 0.85 0.85 90 1012.4
20260506035351 47 271 1.7 2.6 0.00 0.85 0.85 90 1012.4
20260506034849 47 267 1.7 4.3 0.00 0.85 0.85 90 1012.4
20260506034346 48 97 2.6 3.5 0.00 0.85 0.85 90 1012.3
20260506033842 48 168 3.5 3.5 0.00 0.85 0.85 90 1012.1
20260506033339 47 184 0.0 0.9 0.00 0.85 0.85 90 1012.3
20260506032836 47 18 2.6 2.6 0.00 0.85 0.85 90 1012.2
20260506032333 47 340 4.3 4.3 0.00 0.85 0.85 90 1012.1
20260506031830 47 324 2.6 3.5 0.00 0.85 0.85 91 1012.0
20260506031327 47 108 0.9 2.6 0.00 0.85 0.85 91 1011.7
20260506030825 47 50 2.6 4.3 0.00 0.85 0.85 91 1011.9
20260506030323 47 48 1.7 2.6 0.00 0.85 0.85 91 1011.7
20260506025819 47 245 2.6 4.3 0.00 0.85 0.85 91 1011.6
20260506025315 47 231 0.9 0.9 0.00 0.85 0.85 90 1011.9
20260506024813 47 24 1.7 2.6 0.00 0.85 0.85 90 1011.6
20260506024310 47 183 2.6 3.5 0.00 0.85 0.85 90 1011.6
20260506023806 47 354 3.5 4.3 0.00 0.85 0.85 90 1011.4
20260506023303 47 335 1.7 2.6 0.00 0.85 0.85 90 1011.3
20260506022759 47 303 1.7 2.6 0.00 0.85 0.85 90 1011.1
20260506022257 47 57 0.9 2.6 0.00 0.85 0.85 90 1010.9
20260506021755 47 342 1.7 3.5 0.00 0.85 0.85 90 1010.9
20260506021252 47 335 1.7 3.5 0.00 0.85 0.85 90 1010.9
20260506020748 47 305 0.9 2.6 0.00 0.85 0.85 90 1010.9
20260506020246 47 163 0.0 0.9 0.00 0.85 0.85 91 1010.7
20260506015744 47 58 1.7 3.5 0.00 0.85 0.85 91 1010.7
20260506015241 47 163 1.7 2.6 0.00 0.85 0.85 92 1010.8
20260506014738 47 107 1.7 2.6 0.00 0.85 0.85 91 1010.6
20260506014234 47 38 1.7 3.5 0.00 0.85 0.85 91 1010.8
20260506013732 47 336 1.7 2.6 0.00 0.85 0.85 91 1010.6
20260506013229 47 339 2.6 4.3 0.00 0.85 0.85 91 1010.5
20260506012725 47 21 3.5 3.5 0.00 0.85 0.85 92 1010.4
20260506012222 47 287 2.6 3.5 0.00 0.85 0.85 92 1010.2
20260506011719 47 250 0.9 0.9 0.00 0.85 0.85 92 1010.5
20260506011215 47 260 0.0 0.9 0.00 0.85 0.85 92 1010.1
20260506010714 47 249 2.6 3.5 0.00 0.85 0.85 92 1010.1
20260506010211 47 297 0.0 0.0 0.00 0.85 0.85 92 1010.4
20260506005708 47 212 0.9 0.9 0.00 0.85 0.85 92 1010.3
20260506005205 47 217 0.0 0.9 0.00 0.85 0.85 92 1010.0
20260506004700 47 281 4.3 7.0 0.00 0.85 0.85 92 1009.9
20260506004159 47 222 2.6 4.3 0.00 0.85 0.85 92 1010.0
20260506003654 48 323 1.7 2.6 0.00 0.85 0.85 91 1009.7
20260506003151 48 263 0.9 2.6 0.00 0.85 0.85 91 1009.9
20260506002646 48 319 2.6 4.3 0.00 0.85 0.85 90 1010.0
20260506002143 48 279 1.7 2.6 0.00 0.85 0.85 90 1010.0
20260506001638 48 132 7.0 8.7 0.00 0.85 0.85 90 1010.0
20260506001136 48 254 1.7 2.6 0.00 0.85 0.85 90 1009.7
20260506000633 48 87 1.7 2.6 0.00 0.85 0.85 89 1009.9
20260506000131 48 41 3.5 4.3 0.00 0.85 0.85 88 1010.0
20260505235629 48 62 2.6 3.5 0.00 0.85 0.85 88 1009.9
20260505235125 48 2 2.6 3.5 0.00 0.85 0.85 89 1009.9
20260505234622 48 47 5.2 8.7 0.00 0.85 0.85 88 1009.4
20260505234119 48 117 7.0 10.4 0.00 0.85 0.85 88 1009.6
20260505233617 48 254 0.0 0.9 0.00 0.85 0.85 88 1009.4
20260505233114 48 192 1.7 2.6 0.00 0.85 0.85 88 1009.5
20260505232612 48 64 6.1 9.6 0.00 0.85 0.85 87 1009.1
20260505232109 48 12 4.3 7.0 0.00 0.85 0.85 88 1009.1
20260505231606 49 184 2.6 4.3 0.00 0.85 0.85 87 1008.9
20260505231104 49 128 1.7 2.6 0.00 0.85 0.85 86 1009.0
20260505230602 49 196 1.7 2.6 0.00 0.85 0.85 86 1009.2
20260505230058 49 213 0.0 0.9 0.00 0.85 0.85 85 1009.0
20260505225555 49 341 4.3 6.1 0.00 0.85 0.85 85 1009.2
20260505225050 49 301 0.9 0.9 0.00 0.85 0.85 84 1009.0
20260505224548 49 248 0.9 0.9 0.00 0.85 0.85 84 1009.0
20260505224045 49 337 3.5 3.5 0.00 0.85 0.85 84 1009.0
20260505223542 50 283 1.7 3.5 0.00 0.85 0.85 85 1008.7
20260505223038 50 73 0.0 0.9 0.00 0.85 0.85 84 1008.9
20260505222534 50 308 1.7 2.6 0.00 0.85 0.85 84 1008.4
20260505222031 50 207 0.0 0.9 0.00 0.85 0.85 84 1008.4
20260505221528 50 335 2.6 3.5 0.00 0.85 0.85 83 1008.5
20260505221024 50 1 4.3 7.0 0.00 0.85 0.85 84 1008.4
20260505220522 50 60 1.7 3.5 0.00 0.85 0.85 84 1008.4
20260505220020 50 2 5.2 7.0 0.00 0.85 0.85 86 1008.5
20260505215518 50 174 3.5 4.3 0.00 0.85 0.85 85 1008.7
20260505215015 50 57 7.0 9.6 0.00 0.85 0.85 85 1008.7
20260505214513 50 227 2.6 3.5 0.00 0.85 0.85 86 1008.5
20260505214009 50 112 3.5 6.1 0.00 0.85 0.85 86 1008.4
20260505213508 50 305 0.9 0.9 0.00 0.85 0.85 87 1008.4
20260505213004 50 102 1.7 2.6 0.00 0.85 0.85 87 1008.2
20260505212500 50 71 5.2 7.0 0.00 0.85 0.85 85 1008.3
20260505211957 50 262 1.7 2.6 0.00 0.85 0.85 86 1008.3
20260505211454 50 287 3.5 4.3 0.00 0.85 0.85 87 1008.2
20260505210950 50 158 7.0 9.6 0.00 0.85 0.85 88 1008.2
20260505210448 50 43 9.6 13.0 0.00 0.85 0.85 89 1008.4
20260505205944 50 203 1.7 2.6 0.00 0.85 0.85 90 1008.3
20260505205443 50 49 1.7 3.5 0.00 0.85 0.85 90 1008.4
20260505204939 51 35 4.3 6.1 0.00 0.85 0.85 89 1008.3
20260505204437 51 304 3.5 3.5 0.00 0.85 0.85 88 1008.5
20260505203934 51 82 1.7 2.6 0.00 0.85 0.85 88 1008.4
20260505203431 51 322 0.9 2.6 0.00 0.85 0.85 88 1008.5
20260505202927 51 324 4.3 7.0 0.00 0.85 0.85 88 1008.5
20260505202423 51 251 4.3 6.1 0.00 0.85 0.85 88 1008.2
20260505201920 51 189 4.3 4.3 0.00 0.85 0.85 89 1008.0
20260505201417 51 280 4.3 6.1 0.00 0.85 0.85 89 1008.1
20260505200915 51 42 4.3 6.1 0.00 0.85 0.85 90 1008.2
20260505200412 51 18 4.3 6.1 0.00 0.85 0.85 90 1008.3
20260505195907 51 264 4.3 7.0 0.00 0.85 0.85 90 1008.3
20260505195405 52 263 0.0 0.9 0.00 0.85 0.85 91 1007.8
20260505194902 52 281 6.1 8.7 0.00 0.85 0.85 91 1008.0
20260505194400 52 126 1.7 2.6 0.00 0.85 0.85 91 1008.0
20260505193900 52 60 0.9 2.6 0.00 0.85 0.85 90 1008.1
20260505193358 52 263 2.6 3.5 0.00 0.85 0.85 89 1008.1
20260505192855 52 221 1.7 3.5 0.00 0.85 0.85 90 1008.1
20260505192354 52 290 2.6 6.1 0.00 0.85 0.85 89 1007.8
20260505191851 52 334 3.5 4.3 0.00 0.85 0.85 89 1007.9
20260505191349 53 296 2.6 4.3 0.00 0.85 0.85 89 1007.5
20260505190846 53 109 4.3 9.6 0.00 0.85 0.85 88 1007.5
20260505190341 53 199 2.6 4.3 0.00 0.85 0.85 88 1007.6
20260505185837 53 295 3.5 4.3 0.00 0.85 0.85 88 1007.5
20260505185334 53 235 0.9 0.9 0.00 0.85 0.85 88 1007.7
20260505184830 53 337 5.2 7.0 0.00 0.85 0.85 89 1007.4
20260505184327 53 242 0.0 0.9 0.00 0.85 0.85 90 1007.8
20260505183824 53 26 4.3 8.7 0.00 0.85 0.85 88 1007.8
20260505183321 53 222 1.7 2.6 0.00 0.85 0.85 89 1008.0
20260505182818 53 180 2.6 3.5 0.00 0.85 0.85 89 1007.7
20260505182314 54 8 5.2 6.1 0.00 0.85 0.85 89 1007.7
20260505181811 54 322 1.7 3.5 0.00 0.85 0.85 89 1007.5
20260505181309 54 294 2.6 4.3 0.00 0.85 0.85 89 1007.4
20260505180805 54 140 1.7 3.5 0.00 0.85 0.85 90 1007.2
20260505180301 54 29 3.5 4.3 0.05 0.85 0.85 90 1007.2
20260505175758 54 56 4.3 6.1 0.05 0.85 0.85 90 1006.9
20260505175254 54 124 4.3 4.3 0.00 0.84 0.84 90 1007.4
20260505174751 54 111 7.8 9.6 0.00 0.84 0.84 90 1007.1
20260505174248 54 123 4.3 7.0 0.00 0.84 0.84 90 1007.3
20260505173744 54 70 2.6 4.3 0.00 0.84 0.84 91 1007.2
20260505173241 54 266 1.7 2.6 0.00 0.84 0.84 91 1007.3
20260505172738 54 36 3.5 6.1 0.00 0.84 0.84 91 1007.1
20260505172235 54 108 2.6 3.5 0.00 0.84 0.84 92 1007.0
20260505171735 54 16 4.3 6.1 0.00 0.84 0.84 92 1006.9
20260505171232 54 256 4.3 7.0 0.00 0.84 0.84 92 1007.1
20260505170729 54 123 5.2 7.0 0.00 0.84 0.84 92 1006.9
20260505170226 54 283 2.6 3.5 0.00 0.84 0.84 92 1007.0
20260505165721 54 20 3.5 4.3 0.00 0.84 0.84 92 1007.0
20260505165217 55 268 2.6 2.6 0.00 0.84 0.84 93 1007.1
20260505164713 55 89 2.6 3.5 0.00 0.84 0.84 93 1006.8
20260505164210 55 47 6.1 8.7 0.00 0.84 0.84 93 1007.0
20260505163708 55 32 0.9 0.9 0.00 0.84 0.84 93 1006.8
20260505163206 55 31 2.6 3.5 0.00 0.84 0.84 93 1007.0
20260505162703 55 318 0.9 2.6 0.00 0.84 0.84 93 1006.9
20260505162201 55 223 1.7 3.5 0.00 0.84 0.84 93 1006.8
20260505161657 55 59 4.3 7.0 0.00 0.84 0.84 93 1006.9
20260505161154 55 44 1.7 4.3 0.00 0.84 0.84 93 1006.9
20260505160652 55 0 7.0 9.6 0.00 0.84 0.84 93 1006.6
20260505160150 56 348 3.5 8.7 0.00 0.84 0.84 95 1006.4
20260505153129 57 314 0.9 0.9 0.00 0.84 0.84 95 1006.3
20260505152625 57 284 2.6 3.5 0.00 0.84 0.84 95 1006.2
20260505152121 57 134 4.3 4.3 0.00 0.84 0.84 95 1006.2
20260505151617 58 71 0.0 0.9 0.00 0.84 0.84 95 1006.1
20260505151114 58 287 0.9 0.9 0.00 0.84 0.84 96 1006.1
20260505150610 58 231 0.0 0.9 0.00 0.84 0.84 96 1006.1
20260505150108 58 345 3.5 4.3 0.00 0.84 0.84 96 1005.9
20260505140536 60 81 0.9 0.9 0.00 0.84 0.84 99 1005.9